Location: Newark
(57.9988°N, 22.0181°E)
Time: 09:43:07
(UTC+00:00)

BlueWalker 3 - Visible Passes

Search period start: 08 December 2022 00:00
Search period end: 18 December 2022 00:00
Orbit: 501 x 518 km, 53.2° (Epoch: 07 December)

Date Brightness Start Highest point End Pass type
(mag) Time Alt. Az. Time Alt. Az. Time Alt. Az.
08 Dec 3.7 15:49:40 10° W 15:53:07 30° SSW 15:56:33 10° SE visible
08 Dec 4.8 17:29:23 10° WSW 17:30:53 12° SW 17:31:50 11° SSW visible
09 Dec 3.8 15:31:16 10° W 15:34:41 29° SSW 15:38:06 10° SE visible
09 Dec 4.9 17:11:07 10° WSW 17:12:26 11° SW 17:13:44 10° SSW visible
10 Dec 3.9 15:12:51 10° W 15:16:15 28° SSW 15:19:38 10° SE visible
10 Dec 5.0 16:52:54 10° WSW 16:53:59 11° SW 16:55:02 10° SSW visible
11 Dec 4.1 14:54:25 10° W 14:57:48 28° SSW 15:01:10 10° SE visible
11 Dec 5.2 16:34:46 10° SW 16:35:30 10° SW 16:36:14 10° SSW visible
12 Dec 4.2 14:36:00 10° W 14:39:21 27° SSW 14:42:41 10° SE visible
